Regional Weather Roundup
Issued by NWS

Home | Current Version | Previous Version | Text Only | Print | Product List | Glossary Off
Versions: 1 2 3 4 5 6 7 8 9 10 11 12 13 14 15 16 17 18 19 20 21 22 23 24 25 26 27 28 29 30 31 32 33 34 35 36 37 38 39 40 41 42 43 44 45 46 47 48 49 50

000
ASUS45 KCYS 280610
RWRWY

WYOMING REGIONAL WEATHER ROUNDUP
NATIONAL WEATHER SERVICE CHEYENNE WY
1200 AM MDT FRI APR 28 2017

NOTE:  "FAIR" INDICATES FEW OR NO CLOUDS BELOW 12,000 FEET
WITH NO SIGNIFICANT WEATHER AND/OR OBSTRUCTIONS TO VISIBILITY.

WYZ001-280700-
YELLOWSTONE NATIONAL PARK

CITY           SKY/WX    TMP DP  RH WIND       PRES   REMARKS
LK YELLOWSTONE   N/A     25  23  92 NW5       29.77F WCI  19
6HR MIN TEMP:  25; 6HR MAX TEMP:  27; 6HR PCP:  0.03;

W YELLOWSTONE  NOT AVBL

$$
WYZ002>013-054>058-071-098>099-280700-
NORTHERN WYOMING

CITY           SKY/WX    TMP DP  RH WIND       PRES   REMARKS
JACKSON        CLOUDY    30  30 100 CALM      29.78S
CODY           LGT RAIN  35  32  88 N14       29.75F WCI  26
GREYBULL       CLOUDY    40  33  76 NW25G31   29.68R WCI  29
6HR MIN TEMP:  40; 6HR MAX TEMP:  50; 6HR PCP: TRACE;

WORLAND        CLOUDY    39  37  92 NW15      29.68S WCI  31
6HR MIN TEMP:  39; 6HR MAX TEMP:  48; 6HR PCP: TRACE;

SHERIDAN       LGT RAIN  34  32  92 W8        29.75F WCI  27
6HR MIN TEMP:  33; 6HR MAX TEMP:  34; 6HR PCP:  0.43;

BUFFALO        SNOW      34  31  88 NW13      29.73S VSB 1/2 WCI  25
6HR MIN TEMP:  34; 6HR MAX TEMP:  35; 6HR PCP:  0.18;

GILLETTE       SNOW      33  33 100 N5        29.69S WCI  29
6HR MIN TEMP:  33; 6HR MAX TEMP:  37; 6HR PCP:  0.47;

HULETT         CLOUDY    36  32  87 E9G17     29.73S WCI  29
NEWCASTLE      NOT AVBL

$$
WYZ014>020-022>026-101>103-280700-
CENTRAL WYOMING

CITY           SKY/WX    TMP DP  RH WIND       PRES   REMARKS
BIG PINEY      FAIR      29  21  72 N12       29.75F WCI  19
6HR MIN TEMP:  28; 6HR MAX TEMP:  39;

PINEDALE       CLOUDY    30  23  74 NW15G21   29.74F WCI  19
DUBOIS         CLOUDY    32  19  59 W21G26    29.69S WCI  20
LANDER         LGT SNOW  34  30  85 NE9       29.70R FOG     WCI  27
6HR MIN TEMP:  33; 6HR MAX TEMP:  38; 6HR PCP: TRACE;

RIVERTON       LGT SNOW  33  32  96 VRB6      29.70R FOG     WCI  28
6HR MIN TEMP:  32; 6HR MAX TEMP:  37; 6HR PCP:  0.09;

CASPER         LGT SNOW  32  31  96 N10       29.65S FOG     WCI  24
6HR MIN TEMP:  32; 6HR MAX TEMP:  38; 6HR PCP:  0.04;

DOUGLAS        CLOUDY    36  34  92 NE15      29.62F WCI  27
6HR MIN TEMP:  36; 6HR MAX TEMP:  41; 6HR PCP:  0.07;


$$
WYZ021-027>030-104>119-280700-
SOUTHERN WYOMING

CITY           SKY/WX    TMP DP  RH WIND       PRES   REMARKS
EVANSTON       CLOUDY    26  24  92 SW7       29.82F WCI  18
6HR MIN TEMP:  25; 6HR MAX TEMP:  37; 6HR PCP: TRACE;

KEMMERER         N/A     28  21  74 W14G22    29.79S WCI  17
FORT BRIDGER   MOCLDY    28  25  91 W12       29.83  WCI  17
ROCK SPRINGS   CLOUDY    31  23  72 W22       29.76S WCI  18
6HR MIN TEMP:  31; 6HR MAX TEMP:  42;

DIXON            N/A     32  24  72 SW7       29.78S WCI  26
RAWLINS        HVY SNOW  30  27  88 W24       29.68S VSB 1/4 WCI  16
6HR MIN TEMP:  30; 6HR MAX TEMP:  39; 6HR PCP:  0.06;

SARATOGA       CLOUDY    32  23  69 SW14      29.71S WCI  22
LARAMIE        FAIR      28  21  75 SW3       29.64S
6HR MIN TEMP:  27; 6HR MAX TEMP:  42;

CHEYENNE       FAIR      35  26  69 W9        29.63F WCI  28
6HR MIN TEMP:  34; 6HR MAX TEMP:  48;

TORRINGTON     CLOUDY    41  40  96 E7        29.59F
6HR MIN TEMP:  41; 6HR MAX TEMP:  46; 6HR PCP:  0.03;

PINE BLUFFS    FAIR      34  34 100 CALM      29.63S

$$



USA.gov is the U.S. government's official web portal to all federal, state and local government web resources and services.